Location: Moy Burn
(57.3833°N, 4.0667°W)
Time: 09:06:40
(UTC+00:00)

Cosmos 540 Rocket - Pass Details

Date: 08 August 2020
Orbit: 740 x 754 km, 74.1° (Epoch: 18 September)

Event Time Altitude Azimuth Distance (km) Brightness Sun altitude
Rises 23:13:00 0° 328° (NNW) 3,212 8.3 -15.4°
Reaches altitude 10° 23:15:28 10° 321° (NW) 2,286 7.1 -15.5°
Maximum altitude 23:20:18 41° 253° (WSW) 1,087 4.3 -15.7°
Enters shadow 23:23:13 21° 195° (SSW) 1,631 4.7 -15.8°
